64595 station(s) have been heard in the last 24 hours.

<< 754 755 756 757 758 759 760 >>
  Name/Id Latest heard Comment/Other Map
Symbol IU1OVT-D 1788284720 70cm MMDVM Voice (DMR) 433.62500MHz +0.0000MHz, APRS for DMRGateway Map
Symbol KE4KMD-D 1788284720 70cm MMDVM Voice (DMR) 448.85000MHz +0.0000MHz, APRS for DMRGateway Map
Symbol HB9HKL-N 1788284720 70cm MMDVM Voice (C4FM) 432.17500MHz +0.0000MHz, HB9HKL_Pi-Star_ND Map
Symbol KM7KK C 1788284720 2m Voice (D-Star) 147.25000MHz +0.0000MHz, APRS for ircDDBGateway Map
Symbol IR3ZVM-B 1788284720 70cm Voice (D-Star) 430.36200MHz +1.6000MHz Map
Symbol IR3ZZO-B 1788284720 440 Voice 431.28750MHz -1.6000MHz Map
Symbol SV1QVW B 1788284720 70cm Voice (D-Star) 431.02500MHz +0.0000MHz Map
Symbol IR3UEF A 1788284720 23cm/1.2GHz Voice (D-Star) 1297.22500MHz -30.0000MHz Map
Symbol EA1GLY-10 1788284720 Lora iGate Burgos Centro Map
Symbol AD6NH-Y 1788284720 Powered by WPSD (https://wpsd.radio) Map
Symbol HI8EES-D 1788284720 Powered by WPSD (https://wpsd.radio) Map
Symbol NP3QL B 1788284720 70cm Voice (D-Star) 438.82500MHz +0.0000MHz Map
Symbol VK4RAR-C 1788284719 2m Voice (D-Star) 147.33750MHz -1.6000MHz Map
Symbol TI7TKZ B 1788284719 440 Voice 433.42500MHz +0.0000MHz Map
Symbol PY4EN-B 1788284719 70cm Voice (D-Star) 438.20000MHz +0.0000MHz Map
Symbol IT9GAK-N 1788284719 70cm MMDVM Voice (C4FM) 433.45000MHz +0.0000MHz, IT9GAK_Pi-Star_ND Map
Symbol CT2HKY-B 1788284719 70cm Voice (D-Star) 430.00000MHz +10.0000MHz Map
Symbol SP5KT-R 1788284719 70cm MMDVM Voice (C4FM) 438.80000MHz -7.6000MHz, SP5KT_Pi-Star_RPT Map
Symbol IW1ENZ B 1788284719 70cm Voice (D-Star) 433.50000MHz +0.0000MHz Map
Symbol DO2EN B 1788284719 70cm Voice (D-Star) 433.88750MHz +0.0000MHz, APRS for ircDDBGateway Map
Symbol KE8GVB C 1788284719 2m Voice 145.140 -0.600 MHz Map
Symbol PY2KO B 1788284719 70cm Voice (D-Star) 433.99000MHz +0.0000MHz Map
Symbol KE8GVB B 1788284719 440 Voice 442.825 +5.00 MHz Map
Symbol DO5CO-D 1788284719 70cm MMDVM Voice (DMR) 431.15000MHz +0.0000MHz, APRS for DMRGateway Map
Symbol IR1UGO C 1788284719 2m Voice 144.93750MHz +0.0000MHz Map
Symbol KD6VEX-2 1788284719 12.6V 18C HDOP00.9 SATS09 Map
Symbol SR9UVT 1788284719 DMR repeater 439.2375MHz -7.6MHz; BM CC9 Map
Symbol IR3ZZO B 1788284719 440 Voice 431.28750MHz -1.6000MHz Map
Symbol VE3UJK 1788284719 13.6V 20C Map
Symbol SM6YEC 1788284719 Home Sweet Home! Map
Symbol W8TME-D 1788284719 70cm MMDVM Voice (DMR) 442.57500MHz +5.0000MHz, APRS for DMRGateway Map
Symbol CX4CXX-B 1788284718 RNG0001 440 Voice 432.45000MHz +5.0000MHz Map
Symbol LU8EHB 1788284718 LU8EHB - Estacion de RadioAficionado - MERCEDES - BUENOS AIRES QAP 145.295MHz y 146.520MHz Temp 21.6C Hum 46% Map
Symbol AB2ZT B 1788284718 70cm Voice (D-Star) 438.80000MHz +0.0000MHz Map
Symbol I5EKX-11 1788284718 MC TdNE Map
Symbol DL9OBM B 1788284718 70cm Voice (D-Star) 434.93750MHz +0.0000MHz Map
Symbol MB6JT C 1788284718 2m Voice (D-Star) 144.91250MHz +0.0000MHz, APRS for ircDDBGateway Map
Symbol J41VAI 1788284718 1200 Baud-DIRECT PATH. Map
Symbol IRLP-3495 1788284718 : IDLE Map
Symbol LU8EHB-L 1788284718 LU8EHB-L - NODO Echolink en 145.295Mhz Antena:Dipolo Gan:6dBi ALT:20mts Pot:20W MERCEDES - BUENOS AIRES Temp 21.6C Hum 46% | Ultimo QSO: IU0HKM - 2026-08-31 13:14:36 Map
Symbol KM4YGV-12 1788284718 145.070MHz Winlink Packet Gateway Map
Symbol M1DOA-N 1788284718 70cm MMDVM Voice (C4FM) 438.10000MHz +0.0000MHz, M1DOA_Pi-Star_ND Map
Symbol HS3OVQ-N 1788284718 2m MMDVM Voice (NXDN) 146.62500MHz +0.0000MHz, HS3OVQ_Pi-Star_ND Map
Symbol DB0DUS-12 1788284718 APRS iGate mit dxlAPRS Toolchain und Ra02 Map
Symbol MSPK99 1788284718 MSPK99 .990 Igate/Digi VE7ACS info@bcfmca.bc.ca Map
Symbol IW2DGQ-10 1788284718 ... APRS iGate LoRa tech ... Map
Symbol KC1PHF B 1788284718 70cm Voice (D-Star) 441.12500MHz +0.0000MHz Map
Symbol DK5XL-15 1788284718 Ranger-Station Meshcom#DK5XL-15/B=100 Map
Symbol TA1DTA-N 1788284718 70cm MMDVM Voice (NXDN) 438.17500MHz +0.0000MHz, TA1DTA_Pi-Star_ND Map
Symbol DB0KV-10 1788284718 Test *** LoRa APRS iGate *** Test Map